{"data":{"norad_id":62991,"intl_designator":"2025-031L","name":"STARLINK-11583 [DTC]","alt_names":[],"object_type":"PAYLOAD","status":"ACTIVE","operator":null,"country":"US","launch_date":"2025-02-11","launch_site_code":"AFETR","launch_vehicle":null,"mission":null,"orbit_class":"UNKNOWN","rcs_meters":null,"size_class":null,"mass_kg":null,"dimensions":null,"purposes":["comms"],"wikipedia_slug":null,"has_3d_model":false,"image_url":null,"decayed_at":null,"tle_current":{"epoch":"2026-09-21T08:39:56.033280Z","epoch_age_seconds":90523,"freshness":"FRESH","line1":"1 62991U 25031L   26264.36106520  .00087696  00000+0  67895-3 0  9994","line2":"2 62991  43.0012 262.2661 0002098 254.9925 105.0711 15.70866691 93522","mean_motion":15.70866691,"eccentricity":0.0002098,"inclination_deg":43.0012,"raan_deg":262.2661,"arg_perigee_deg":254.9925,"mean_anomaly_deg":105.0711,"bstar":0.00067895,"rev_number":9352,"period_min":91.669140879377,"perigee_km":355.0058649739,"apogee_km":357.831684577,"semimajor_km":6734.5557747754,"source":"CELESTRAK","updated_at":"2026-09-22T09:00:49.718573Z"}}}